Regional Weather Roundup
Issued by NWS

Home | Current Version | Previous Version | Text Only | Print | Product List | Glossary Off
Versions: 1 2 3 4 5 6 7 8 9 10 11 12 13 14 15 16 17 18 19 20 21 22 23 24 25 26 27 28 29 30 31 32 33 34 35 36 37 38 39 40 41 42 43 44 45 46 47 48 49 50

000
ASUS43 KOAX 191310
RWRNE

WEATHER ROUNDUP FOR NEBRASKA
NATIONAL WEATHER SERVICE OMAHA NE
800 AM CDT FRI SEP 19 2014

NOTES: SATELLITE DATA IS BEING USED TO AUGMENT CLOUD COVER ABOVE
       12000 FEET.
       "FAIR" INDICATES FEW OR NO CLOUDS BELOW 12,000 FEET WITH NO
       SIGNIFICANT WEATHER AND/OR OBSTRUCTIONS TO VISIBILITY.

  * THESE STATIONS DO NOT REPORT WEATHER SUCH AS RAIN...SNOW OR FOG.

NEZ001>004-019>022-054>056-191400-
NEBRASKA PANHANDLE

CITY           SKY/WX    TMP DP  RH WIND       PRES   REMARKS
SCOTTSBLUFF    MOCLDY    59  53  80 NW9       29.92R
ALLIANCE       PTCLDY    49  47  93 CALM      29.87R
CHADRON        PTCLDY    57  52  83 S3        29.85R
KIMBALL        PTCLDY    61  41  46 W9        29.95R
SIDNEY         CLEAR     61  48  62 W7        29.93R
$$

NEZ057>060-069>072-079>082-191400-
SOUTHWEST NEBRASKA

CITY           SKY/WX    TMP DP  RH WIND       PRES   REMARKS
NORTH PLATTE   CLEAR     58  56  93 S7        29.87S
IMPERIAL       CLEAR     59  55  87 S9        29.89R
LEXINGTON      CLEAR     61  60  96 S8        29.89S
MCCOOK         CLEAR     53  53 100 SE3       29.90R FOG
OGALLALA       CLEAR     50  50  99 CALM      29.87S
$$

NEZ005>010-023>029-035>040-094-191400-
NORTH CENTRAL NEBRASKA

CITY           SKY/WX    TMP DP  RH WIND       PRES   REMARKS
VALENTINE      CLEAR     58  58 100 SW9       29.78F
AINSWORTH      MOCLDY    61  61  99 SW10      29.81S FOG
BROKEN BOW     CLEAR     62  60  93 S9        29.85S
O`NEILL        CLEAR     65  64  94 S12       29.80S
ORD            CLEAR     63  60  90 S7        29.83S
THEDFORD       PTCLDY    60  59  96 S10       29.85R
$$

NEZ041-046>049-061>064-073>077-083>087-191400-
SOUTH CENTRAL NEBRASKA

CITY           SKY/WX    TMP DP  RH WIND       PRES   REMARKS
GRAND ISLAND   CLEAR     64  61  90 S13       29.90R
AURORA         CLOUDY    64  63  97 S9G17     29.91R
HASTINGS       CLEAR     62  59  90 S9        29.91R
HEBRON         MOCLDY    64  62  90 S8        29.94S FOG
HOLDREGE       CLEAR     60  58  93 S10       29.91R
KEARNEY *      CLEAR     61  57  88 S13       29.90S
YORK           CLOUDY    64  64 100 S14       29.92R
$$

NEZ011>018-030>034-042>045-191400-
NORTHEAST NEBRASKA

CITY           SKY/WX    TMP DP  RH WIND       PRES   REMARKS
NORFOLK        CLOUDY    65  62  90 S15G24    29.85S
ALBION         CLOUDY    63  61  93 S10G17    29.86S
BLAIR          MOCLDY    64  61  91 S13G21    29.92S FOG
COLUMBUS *     CLOUDY    64  61  88 SW16      29.90S
FREMONT        CLOUDY    64  62  91 SE14G23   29.91R FOG
TEKAMAH        PTCLDY    64  61  90 S13       29.90S
WAYNE          CLOUDY    65  62  90 S16G24    29.85F
$$

NEZ050>053-065>068-078-088>093-191400-
SOUTHEAST NEBRASKA

CITY           SKY/WX    TMP DP  RH WIND       PRES   REMARKS
LINCOLN        CLOUDY    65  62  90 S10       29.94R
OMAHA EPPLEY   CLOUDY    63  60  90 S18G26    29.93F FOG
BEATRICE       CLEAR     63  62  94 S9        29.95S
FALLS CITY     CLOUDY    63  62  97 S10       29.98S FOG
NEBRASKA CITY  CLOUDY    62  62  99 S9        29.98R FOG
PLATTSMOUTH    CLOUDY    62  60  93 SE10G16   29.96S FOG
$$

NEZ044-045-051>053-067-191400-
OMAHA AREA

CITY           SKY/WX    TMP DP  RH WIND       PRES   REMARKS
OMAHA EPPLEY   CLOUDY    63  60  90 S18G26    29.93F FOG
BLAIR          MOCLDY    64  61  91 S13G21    29.92S FOG
FREMONT        CLOUDY    64  62  91 SE14G23   29.91R FOG
MILLARD        CLOUDY    64  61  90 SE13      29.93F FOG
OFFUTT AFB     CLOUDY    63  63 100 SE13      29.94F
PLATTSMOUTH    CLOUDY    62  60  93 SE10G16   29.96S FOG
WAHOO          CLOUDY    63  60  90 S12       29.92S FOG
$$



USA.gov is the U.S. government's official web portal to all federal, state and local government web resources and services.